Погода в Нелькане

Погода в Нелькане : погода сейчас, прогноз погоды и архив. Всё, что Вы хотите узнать о погоде в Нелькане!

Поиск расширенной информации на нашем сайте:

Полезная информация: Половинка сайт знакомства бесплатный сайт знакомств найти вторую половинку.

Другие новости

Новости СМИ2

Главная страница сайта

Новости сайта

03.07.2017

Напоминаем, что на нашем специализированном сайте Метеоцентр.Азия вы можете получить высокодетализированные автоматические прогнозы погоды по пунктам России, СНГ и мира в авиационном формате (включающие направление и скорость ветра, видимость, явления погоды, количество и форму облачности, нижнюю и верхнюю границу облачности).

Рекомендуем: полировка кузова автомобиля

Погода в Нелькане - сегодня

Время (UTC), дата Ветер
(°,м/с) 
Видим.   Явления Облачность Т
(°С)
Тd
(°С)
f(%) Тe
(°С)
Pmin
(гПа)
dP
(гПа)
Po
(мм)
O2
(г/м3)
Тmin Tmax R s Состояние
почвы
15 24.07.17 360 (С) 20000 м  {дождь}  10/5 1000 м средняя 
[Sc|As op]
+11.2 +9.8 91 +13  1006.3  -0.3  727  279           
18 24.07.17 340 (С) 20000 м  в посл. час дождь  10/5 1000 м средняя 
[Sc|As op]
+11 +10 94 +13  1006.3  -0.6  727  280           
21 24.07.17 360 (С) 20000 м  в посл. час дождь  10/8 1000 м средняя 
[Sc|As op]
+11.3 +10.7 96 +12  1006.3  0.1    +9.8        мокрая 
00 25.07.17 360 (С) 20000 м  {дождь}  10/8 1000 м средняя 
[Sc|As op]
+12 +11 94 +15  1006.9  0.6  727  279  +9.8         
03 25.07.17 360 (С) 20000 м    10/8 1000 м средняя 
[Sc|As op]
+13.3 +11.6 89 +18  1006.3  -0.4  727  277           
06 25.07.17 360 (С) 20000 м    10/8 1000 м средняя 
[Sc|As op]
+15 +11.9 82 +20  1005.4  -0.5  726  275           
09 25.07.17 360 (С) 20000 м    10/6 1000 м средняя 
[Sc|As op]
+16 +12.2 78 +22  1004.7  -0.6  726  274    +16.2       
12 25.07.17 тихо ()   20000 м    10/4 1000 м средняя, верхняя 
[Sc|Ac trans|Cs]
+15.3 +13.3 88 +22  1004.5  -0.3  726  274           
15 25.07.17 200 (Ю) 20000 м    10/3 1000 м средняя, верхняя 
[Ac trans|Cs]
+12 +11 94 +16  1004.5  -0.6  725  278           
18 25.07.17 180 (Ю) 20000 м    10/0 средняя, верхняя 
[Ac trans|Cs]
+9.6 +9.2 97 +12  1003.9  -0.8  725  280           
00 26.07.17 160 (Ю) 20000 м  {туман}  5/0 верхняя 
[Ci sp]
+12.2 +11.4 95 +17  1003  -0.3  724  277  +8         
03 26.07.17 360 (С) 20000 м    8/5 600 м кучево-дожд., верхняя 
[Cb cap|Ci sp]
+20.8 +8.7 46 +21  1000.2  -1.7  723  269           
06 26.07.17 360 (С) 20000 м    8/5 600 м кучево-дожд., верхняя 
[Cb cap|Ci sp]
+21.9 +9.7 46 +23  999.5  -0.5  723  268           
12 26.07.17 270 (З) 20000 м    8/0 средняя 
[Ac trans]
+17.6 +12.4 72 +23  1001.6  1.5  724  272           
15 26.07.17 200 (Ю) 20000 м    8/0 средняя 
[Ac trans]
+15 +12.5 85 +21  1003.2  1.3  725  274           
18 26.07.17 200 (Ю) 20000 м    8/0 средняя 
[Ac trans]
+14.1 +11.9 87 +20  1004.2  0.8  725  276           
21 26.07.17 200 (Ю) 20000 м    8/3 1000 м средняя 
[Sc|Ac trans]
+12.7 +11.4 92 +18  1005.3  0.9  726  277  +12.3        сухая 
00 27.07.17 230 (ЮЗ) 20000 м    8/4 1000 м средняя 
[Sc|Ac trans]
+18.6 +11.9 65 +24  1004.3  -0.3  726  272  +12.3         
03 27.07.17 140 (ЮВ) 20000 м    8/5 600 м кучево-дожд., верхняя 
[Cb cap|Ci sp]
+19.5 +14.9 75 +30  1005  0.9  727  270           
06 27.07.17 360 (С) 20000 м    8/4 600 м кучево-дожд., верхняя 
[Cb cap|Ci sp]
+20.2 +10.9 55 +23  1005.3  0.5  727  271           
09 27.07.17 140 (ЮВ) 20000 м    8/3 1000 м верхняя 
[Cu med, cong|Ci sp]
+21.2 +11.7 55 +25  1004.8  -0.3  727  269    +23.2       
12 27.07.17 250 (З) 20000 м    8/0 средняя 
[Ac trans]
+17.5 +11.7 69 +23  1005.7  0.3  727  273           
15 27.07.17 тихо ()   20000 м    8/0 средняя, верхняя 
[Ac trans|Ci sp]
+12.6 +11.7 94 +17  1007.5  1.2  728  278           
18 27.07.17 тихо ()   20000 м    6/0 средняя 
[Ac trans]
+10 +9.2 95 +11  1008.2  0.3  728  281           
21 27.07.17 тихо ()   0050 м  туман  ?/?  
+9.8 +9 95 +10  1009.2  0.9  729  282  +9.8        влажная 
Время (UTC), дата Ветер
(°,м/с) 
Видим.   Явления Облачность Т
(°С)
Тd
(°С)
f(%) Тe
(°С)
Pmin
(гПа)
dP
(гПа)
Po
(мм)
O2
(г/м3)
Тmin Tmax R s Состояние
почвы

Для получения пояснительной информации подведите курсор к названию столбца.

ПОГОДА в Нелькане - архив

Всё, что Вы хотите узнать о погоде в Нелькане - удобно и подробно!

Выберите нужную дату (начиная с 1 января 2015* года) и нажмите кнопку "Найти".
Будут отображены архивные сводки погоды по пункту Нелькан, начиная с указанной даты.


Отображать данные в формате CSV (для использования в таблицах Excel)


Внимание! Наш архив погоды предназначен исключительно для личного некоммерческого использования в познавательных целях. Если Вам необходимы официальные справки о состоянии погоды (для производственных, юридических, коммерческих и т.п. целей), обращайтесь в органы Росгидромета.

*Примечание: данная дата относится к архиву по метеостанциям СССР (Россия, СНГ, Балтия).
Архив по метеостанциям Зарубежной Европы и Азии (кроме Китая) хранится 10 дней, по другим регионам земного шара (Китай, Африка, Америка, Австралия, Океания) - 1 день.

Нелькан - район местоположения метеостанции


Название, широта, долгота, высота метеостанции:
Нелькан 57.7°ш. 136.2°д. 305 м над ур. моря [Российская Федерация]

Дополнительная информация

В oтличие oт бoльшинства пoгoдных сайтoв мы публикуем пoдрoбную метеoинфoрмацию в детальнoм прoфессиoнальнoм фoрмате.

Характеристики температуры и влажнoсти вoздуха измеряются на высoте 2 м в тени вдали oт зданий и деревьев.
Скoрoсть ветра измеряется на высoте 10 м (на урoвне рoста челoвека скoрoсть ветра ниже в 1.5-2 раза). Если метеoстанция нахoдится в гoрoде или в лесу, тo скoрoсть ветра занижена на 2-4 м/с пo сравнению с oткрытым местoм. Скoрoсть ветра над акватoриями крупных рек и oзёр, а также на вершинах хoлмoв на 2-5 м/с выше, чем в oбычных услoвиях.
Атмoсфернoе давление в разных тoчках местнoсти мoжет значительнo oтличаться oт давления на метеoстанции, в зависимoсти oт услoвий рельефа (при пoдъёме на 10 м давление пoнижается примернo на 1 мм рт.ст.).